Weather History for KHKA - January, 2014

Change the Weather History Date:

Wednesday, January 8, 2014

  Actual Average Record
Temperature  
Mean Temperature 30 °F -  
Max Temperature 41 °F 42 °F 72 °F (1939)
Min Temperature 19 °F 26 °F -9 °F (1942)
Degree Days  
Heating Degree Days 35    
Moisture  
Dew Point 19 °F    
Average Humidity 62    
Maximum Humidity 82    
Minimum Humidity 35    
Precipitation  
Precipitation 0.01 in - - ()
Sea Level Pressure  
Sea Level Pressure 30.43 in    
Wind  
Wind Speed 7 mph (South)    
Max Wind Speed 12 mph    
Max Gust Speed -    
Visibility 10 miles    
Events Rain    
Averages and records for this station are not official NWS values.
T = Trace of Precipitation, MM = Missing Value Source: NWS Daily Summary

Daily Weather History Graph

Daily Weather History Graph

Search for Another Location

Airport or City:

Trip Planner

Search our weather history database for the weather conditions in past years. The results will help you decide how hot, cold, wet, or windy it might be!

Date:

Astronomy

Jan. 08, 2014 Rise Set
Actual Time 7:10 AM CST 5:02 PM CST
Civil Twilight 6:42 AM CST 5:30 PM CST
Nautical Twilight 6:10 AM CST 6:02 PM CST
Astronomical Twilight 5:39 AM CST 6:33 PM CST
Moon 11:48 AM CST (1/8) 12:22 AM CST (1/8)
Length of Visible Light 10h 48m
Length of Day
9h 51m
First Quarter, 56% of the Moon is Illuminated
Jan 8
First Quarter
Jan 15
Full
Jan 23
Last Quarter
Jan 30
New
Feb 6
First Quarter

Hourly Weather History & Observations

Time (CST) Temp. Windchill Dew Point Humidity Pressure Visibility Wind Dir Wind Speed Gust Speed Precip Events Conditions
12:53 AM 23.0 °F 13.1 °F 12.0 °F 63% 30.42 in 10.0 mi South 9.2 mph - N/A   Clear
1:53 AM 21.9 °F 14.5 °F 12.9 °F 68% 30.44 in 10.0 mi South 5.8 mph - N/A   Clear
2:53 AM 21.9 °F 14.5 °F 12.0 °F 66% 30.46 in 10.0 mi South 5.8 mph - N/A   Clear
3:53 AM 21.9 °F 13.4 °F 12.9 °F 68% 30.45 in 10.0 mi South 6.9 mph - N/A   Clear
4:53 AM 21.0 °F 11.4 °F 12.0 °F 68% 30.44 in 10.0 mi South 8.1 mph - N/A   Clear
5:53 AM 19.9 °F 10.1 °F 12.0 °F 71% 30.45 in 10.0 mi South 8.1 mph - N/A   Clear
6:53 AM 23.0 °F 12.4 °F 12.9 °F 65% 30.45 in 10.0 mi South 10.4 mph - N/A   Clear
7:53 AM 25.0 °F 15.5 °F 12.9 °F 60% 30.47 in 10.0 mi South 9.2 mph - N/A   Clear
8:53 AM 27.0 °F 18.7 °F 14.0 °F 58% 30.49 in 10.0 mi South 8.1 mph - N/A   Clear
9:53 AM 30.0 °F 21.7 °F 15.1 °F 54% 30.50 in 10.0 mi South 9.2 mph - N/A   Mostly Cloudy
10:53 AM 36.0 °F 28.5 °F 16.0 °F 44% 30.47 in 10.0 mi South 10.4 mph - N/A   Partly Cloudy
11:53 AM 39.9 °F 32.9 °F 14.0 °F 35% 30.43 in 10.0 mi SSW 11.5 mph - N/A   Clear
12:53 PM 41.0 °F 35.2 °F 15.1 °F 35% 30.40 in 10.0 mi SSW 9.2 mph - N/A   Clear
1:53 PM 39.9 °F 35.8 °F 16.0 °F 38% 30.39 in 10.0 mi SSW 5.8 mph - N/A   Overcast
2:53 PM 39.9 °F - 17.1 °F 40% 30.39 in 10.0 mi Calm Calm - N/A   Overcast
3:53 PM 37.0 °F 32.4 °F 24.1 °F 59% 30.39 in 10.0 mi North 5.8 mph - N/A   Overcast
4:53 PM 36.0 °F 32.1 °F 25.0 °F 64% 30.40 in 10.0 mi NNE 4.6 mph - N/A   Overcast
5:53 PM 35.1 °F 31.0 °F 24.1 °F 64% 30.40 in 10.0 mi NNE 4.6 mph - N/A   Overcast
6:53 PM 34.0 °F 31.0 °F 26.1 °F 73% 30.41 in 10.0 mi NE 3.5 mph - N/A   Overcast
7:53 PM 34.0 °F 29.8 °F 26.1 °F 73% 30.43 in 10.0 mi NE 4.6 mph - 0.00 in   Overcast
8:53 PM 33.1 °F - 28.0 °F 82% 30.44 in 10.0 mi Calm Calm - 0.00 in Rain Light Rain
9:53 PM 33.1 °F 28.7 °F 28.0 °F 82% 30.43 in 10.0 mi NE 4.6 mph - 0.00 in Rain Light Rain
10:53 PM 33.1 °F - 28.0 °F 82% 30.44 in 10.0 mi Calm Calm - 0.01 in   Overcast
11:53 PM 33.1 °F 30.0 °F 28.0 °F 82% 30.43 in 10.0 mi ENE 3.5 mph - 0.00 in Rain Light Rain